Weather History for Henderson, TX

Change the Weather History Date:

Wednesday, June 20, 2012

  Actual Average (KGGG) Record (KGGG)
Temperature  
Mean Temperature 79 °F 81 °F  
Max Temperature 89 °F 91 °F 106 °F (1936)
Min Temperature 69 °F 71 °F 59 °F (1912)
Degree Days  
Heating Degree Days 0 0  
Month to date heating degree days 0  
Since 1 June heating degree days 0  
Since 1 July heating degree days 2258  
Cooling Degree Days 14 16  
Month to date cooling degree days 274  
Year to date cooling degree days 653  
Since 1 June cooling degree days 274  
Growing Degree Days 29 (Base 50)    
Moisture  
Dew Point 65 °F    
Average Humidity 66    
Maximum Humidity 94    
Minimum Humidity 33    
Precipitation  
Precipitation 0.00 in 0.18 in 5.85 in (1993)
Month to date precipitation 3.34  
Year to date precipitation 23.07  
Snow  
Snow 0.00 in - - ()
Month to date snowfall  
Since 1 June snowfall  
Since 1 July snowfall  
Snow Depth -    
Sea Level Pressure  
Sea Level Pressure 29.99 in    
Wind  
Wind Speed 6 mph (SE)    
Max Wind Speed 13 mph    
Max Gust Speed 23 mph    
Visibility 10 miles    
Events      
T = Trace of Precipitation, MM = Missing Value Source: NWS Daily Summary

Daily Weather History Graph

Daily Weather History Graph

Search for Another Location

Airport:

Trip Planner

Search our weather history database for the weather conditions in past years. The results will help you decide how hot, cold, wet, or windy it might be!

Date:

Astronomy

Jun. 20, 2012 Rise Set
Actual Time 6:13 AM CDT 8:28 PM CDT
Civil Twilight 5:45 AM CDT 8:57 PM CDT
Nautical Twilight 5:10 AM CDT 9:31 PM CDT
Astronomical Twilight 4:32 AM CDT 10:09 PM CDT
Moon 7:10 AM CDT (6/20) 9:20 PM CDT (6/20)
Length of Visible Light 15h 12m
Length of Day
14h 15m
New Moon, 1% of the Moon is Illuminated
Jun 20
New Moon
Jun 26
First Quarter
Jul 3
Full
Jul 10
Last Quarter
Jul 18
New

Hourly Weather History & Observations

Time (CDT) Temp. Heat Index Dew Point Humidity Pressure Visibility Wind Dir Wind Speed Gust Speed Precip Events Conditions
12:15 AM 71.6 °F - 68.0 °F 88% 30.00 in 10.0 mi SSE 4.6 mph - N/A   Clear
12:35 AM 71.6 °F - 69.8 °F 94% 30.00 in 10.0 mi SE 4.6 mph - N/A   Clear
12:55 AM 71.6 °F - 69.8 °F 94% 30.00 in 10.0 mi SE 4.6 mph - N/A   Clear
1:15 AM 71.6 °F - 69.8 °F 94% 29.99 in 10.0 mi SSE 6.9 mph - N/A   Clear
1:35 AM 71.6 °F - 68.0 °F 88% 29.99 in 10.0 mi SSE 5.8 mph - N/A   Clear
1:55 AM 71.6 °F - 69.8 °F 94% 29.98 in 10.0 mi South 4.6 mph - N/A   Clear
2:15 AM 71.6 °F - 69.8 °F 94% 29.98 in 10.0 mi SSE 5.8 mph - N/A   Clear
2:35 AM 71.6 °F - 69.8 °F 94% 29.98 in 10.0 mi SSE 3.5 mph - N/A   Clear
2:55 AM 71.6 °F - 68.0 °F 88% 29.98 in 10.0 mi Calm Calm - N/A   Clear
3:15 AM 71.6 °F - 68.0 °F 88% 29.98 in 10.0 mi SSE 4.6 mph - N/A   Clear
3:35 AM 71.6 °F - 68.0 °F 88% 29.97 in 10.0 mi SE 6.9 mph - N/A   Clear
3:55 AM 71.6 °F - 68.0 °F 88% 29.97 in 10.0 mi SE 6.9 mph - N/A   Clear
4:15 AM 71.6 °F - 68.0 °F 88% 29.98 in 10.0 mi SSE 6.9 mph - N/A   Clear
4:35 AM 71.6 °F - 68.0 °F 88% 29.98 in 10.0 mi SSE 4.6 mph - N/A   Clear
4:55 AM 71.6 °F - 68.0 °F 88% 29.98 in 10.0 mi SSE 5.8 mph - N/A   Clear
5:15 AM 69.8 °F - 68.0 °F 94% 29.98 in 10.0 mi SSE 4.6 mph - N/A   Clear
5:35 AM 69.8 °F - 68.0 °F 94% 29.98 in 10.0 mi SE 4.6 mph - N/A   Clear
5:55 AM 69.8 °F - 68.0 °F 94% 29.98 in 10.0 mi SSE 5.8 mph - N/A   Clear
6:15 AM 69.8 °F - 68.0 °F 94% 29.98 in 10.0 mi SE 4.6 mph - N/A   Clear
6:35 AM 69.8 °F - 68.0 °F 94% 29.99 in 10.0 mi ESE 3.5 mph - N/A   Clear
6:55 AM 71.6 °F - 68.0 °F 88% 29.99 in 10.0 mi ESE 3.5 mph - N/A   Clear
7:15 AM 71.6 °F - 68.0 °F 88% 29.99 in 10.0 mi SE 5.8 mph - N/A   Clear
7:35 AM 73.4 °F - 69.8 °F 88% 30.00 in 10.0 mi SE 6.9 mph - N/A   Clear
7:55 AM 73.4 °F - 69.8 °F 88% 30.00 in 10.0 mi SE 4.6 mph - N/A   Scattered Clouds
8:15 AM 75.2 °F - 69.8 °F 83% 30.01 in 10.0 mi SE 4.6 mph - N/A   Scattered Clouds
8:35 AM 77.0 °F - 69.8 °F 78% 30.01 in 10.0 mi SSE 9.2 mph - N/A   Scattered Clouds
8:55 AM 78.8 °F - 69.8 °F 74% 30.01 in 10.0 mi SE 11.5 mph - N/A   Scattered Clouds
9:15 AM 78.8 °F - 69.8 °F 74% 30.02 in 10.0 mi SSE 9.2 mph 18.4 mph N/A   Mostly Cloudy
9:35 AM 80.6 °F 83.9 °F 69.8 °F 70% 30.02 in 10.0 mi South 11.5 mph - N/A   Mostly Cloudy
9:55 AM 82.4 °F 85.4 °F 68.0 °F 62% 30.02 in 10.0 mi South 9.2 mph 16.1 mph N/A   Mostly Cloudy
10:15 AM 80.6 °F 83.2 °F 68.0 °F 65% 30.02 in 10.0 mi South 11.5 mph 23.0 mph N/A   Mostly Cloudy
10:35 AM 80.6 °F 83.2 °F 68.0 °F 65% 30.02 in 10.0 mi South 9.2 mph - N/A   Scattered Clouds
10:55 AM 82.4 °F 85.4 °F 68.0 °F 62% 30.01 in 10.0 mi South 8.1 mph - N/A   Mostly Cloudy
11:15 AM 82.4 °F 85.4 °F 68.0 °F 62% 30.02 in 10.0 mi South 9.2 mph 17.3 mph N/A   Mostly Cloudy
11:35 AM 84.2 °F 86.6 °F 66.2 °F 55% 30.01 in 10.0 mi SSE 12.7 mph 17.3 mph N/A   Scattered Clouds
11:55 AM 86.0 °F 88.2 °F 66.2 °F 51% 30.01 in 10.0 mi South 8.1 mph - N/A   Mostly Cloudy
12:15 PM 84.2 °F 85.6 °F 64.4 °F 51% 30.01 in 10.0 mi SSE 10.4 mph - N/A   Mostly Cloudy
12:35 PM 86.0 °F 86.6 °F 62.6 °F 45% 30.01 in 10.0 mi SE 10.4 mph 17.3 mph N/A   Scattered Clouds
12:55 PM 87.8 °F 89.4 °F 64.4 °F 46% 30.00 in 10.0 mi SE 11.5 mph - N/A   Scattered Clouds
1:15 PM 87.8 °F 88.5 °F 62.6 °F 43% 30.00 in 10.0 mi SE 8.1 mph - N/A   Clear
1:35 PM 87.8 °F 88.5 °F 62.6 °F 43% 29.99 in 10.0 mi SE 6.9 mph - N/A   Scattered Clouds
1:55 PM 86.0 °F 86.6 °F 62.6 °F 45% 29.98 in 10.0 mi SE 8.1 mph - N/A   Scattered Clouds
2:15 PM 87.8 °F 89.4 °F 64.4 °F 46% 29.98 in 10.0 mi SE 9.2 mph - N/A   Scattered Clouds
2:35 PM 89.6 °F 90.1 °F 62.6 °F 40% 29.98 in 10.0 mi East 9.2 mph - N/A   Scattered Clouds
2:55 PM 87.8 °F 88.5 °F 62.6 °F 43% 29.98 in 10.0 mi SE 10.4 mph - N/A   Scattered Clouds
3:15 PM 89.6 °F 89.5 °F 60.8 °F 38% 29.98 in 10.0 mi ESE 8.1 mph 16.1 mph N/A   Scattered Clouds
3:35 PM 89.6 °F 89.5 °F 60.8 °F 38% 29.97 in 10.0 mi SE 10.4 mph - N/A   Clear
3:55 PM 89.6 °F 88.9 °F 59.0 °F 36% 29.97 in 10.0 mi SE 6.9 mph - N/A   Scattered Clouds
4:15 PM 89.6 °F 88.1 °F 57.2 °F 33% 29.96 in 10.0 mi SE 9.2 mph 16.1 mph N/A   Scattered Clouds
4:35 PM 89.6 °F 90.1 °F 62.6 °F 40% 29.96 in 10.0 mi East 8.1 mph 17.3 mph N/A   Clear
4:55 PM 89.6 °F 91.1 °F 64.4 °F 43% 29.96 in 10.0 mi SE 10.4 mph 16.1 mph N/A   Scattered Clouds
5:15 PM 89.6 °F 90.1 °F 62.6 °F 40% 29.96 in 10.0 mi SE 9.2 mph 17.3 mph N/A   Clear
5:35 PM 87.8 °F 88.5 °F 62.6 °F 43% 29.96 in 10.0 mi ESE 9.2 mph - N/A   Clear
5:55 PM 87.8 °F 88.5 °F 62.6 °F 43% 29.95 in 10.0 mi ESE 10.4 mph 17.3 mph N/A   Clear
6:15 PM 87.8 °F 88.5 °F 62.6 °F 43% 29.95 in 10.0 mi ESE 9.2 mph - N/A   Clear
6:35 PM 86.0 °F 86.6 °F 62.6 °F 45% 29.96 in 10.0 mi ESE 8.1 mph - N/A   Clear
6:55 PM 86.0 °F 86.6 °F 62.6 °F 45% 29.96 in 10.0 mi ESE 8.1 mph - N/A   Clear
7:15 PM 86.0 °F 86.6 °F 62.6 °F 45% 29.96 in 10.0 mi SE 8.1 mph - N/A   Clear
7:35 PM 84.2 °F 85.0 °F 62.6 °F 48% 29.97 in 10.0 mi SE 5.8 mph - N/A   Clear
7:55 PM 82.4 °F 83.4 °F 62.6 °F 51% 29.97 in 10.0 mi SE 5.8 mph - N/A   Clear
8:15 PM 80.6 °F 81.8 °F 62.6 °F 54% 29.97 in 10.0 mi ESE 5.8 mph - N/A   Clear
8:35 PM 80.6 °F 81.8 °F 62.6 °F 54% 29.97 in 10.0 mi ESE 5.8 mph - N/A   Clear
8:55 PM 78.8 °F - 62.6 °F 57% 29.97 in 10.0 mi ESE 5.8 mph - N/A   Clear
9:15 PM 78.8 °F - 60.8 °F 54% 29.97 in 10.0 mi SE 5.8 mph - N/A   Clear
9:35 PM 78.8 °F - 60.8 °F 54% 29.97 in 10.0 mi SE 5.8 mph - N/A   Clear
9:55 PM 77.0 °F - 60.8 °F 57% 29.98 in 10.0 mi Calm Calm - N/A   Clear
10:15 PM 73.4 °F - 60.8 °F 65% 29.98 in 10.0 mi SE 3.5 mph - N/A   Clear
10:55 PM 73.4 °F - 60.8 °F 65% 29.99 in 10.0 mi Calm Calm - N/A   Clear
11:15 PM 71.6 °F - 62.6 °F 73% 29.99 in 10.0 mi Calm Calm - N/A   Clear
11:35 PM 69.8 °F - 62.6 °F 78% 29.99 in 10.0 mi Calm Calm - N/A   Clear
11:55 PM 69.8 °F - 62.6 °F 78% 30.00 in 10.0 mi Calm Calm - N/A   Clear